Theta_e
317 317 317 317 318 319 319 318 318 317 316 317 317 316 315 313 313 314 317 316 316 316 317 317 316 317 318 318 317 318 312 313 311 311 314 312 311 310 310 310 309 310 308 309 307
317 317 316 316 317 317 317 317 317 316 315 314 317 315 316 315 315 315 316 316 316 317 317 318 318 316 318 317 316 312 311 314 311 310 313 313 312 311 309 307 306 306 307 307 306
314 315 315 316 316 316 316 316 316 315 314 314 314 317 316 316 317 315 316 315 315 315 316 319 319 315 315 317 315 312 310 314 314 314 314 313 311 311 308 305 309 310 309 306 304
311 312 312 313 314 314 315 315 315 314 314 314 314 316 317 317 316 315 316 315 314 314 315 319 318 316 313 314 314 314 313 313 314 315 314 312 311 309 309 312 312 311 310 307 305
310 310 310 311 312 312 312 313 313 313 313 313 314 315 316 318 316 315 314 314 313 314 315 319 317 314 313 312 313 313 313 315 314 314 314 312 311 309 309 312 311 311 308 307 305
312 312 311 310 310 310 311 311 311 312 312 312 313 315 316 316 318 315 314 314 314 314 314 318 316 315 314 314 313 312 313 312 313 313 313 311 310 308 310 310 310 309 307 305 303
313 313 312 312 311 310 310 310 310 311 311 312 313 315 316 317 318 318 314 312 313 314 314 316 315 316 313 311 312 312 311 309 310 311 311 311 309 306 310 308 307 305 304 302 302
312 313 312 312 311 311 310 310 310 310 311 312 314 315 316 317 319 318 312 311 313 314 314 315 315 315 313 312 311 310 309 312 311 310 310 310 310 308 310 307 304 304 302 302 301
311 312 312 311 311 310 310 309 309 310 311 313 314 315 316 317 317 317 311 311 312 313 313 315 315 313 311 310 311 308 313 311 310 309 309 308 309 308 308 305 303 303 302 301 301
311 311 310 310 309 309 309 309 309 311 313 315 315 316 315 316 317 317 313 310 312 313 314 315 313 309 306 311 315 314 312 309 307 309 308 308 307 308 308 303 304 304 302 300 300
310 309 308 308 308 308 308 308 311 312 316 315 314 315 314 314 315 315 315 314 313 311 312 312 311 312 311 309 312 311 309 307 306 306 308 307 307 309 309 302 300 300 299 300 300
308 307 306 306 307 307 307 308 314 312 312 312 312 312 313 314 314 314 315 314 311 309 310 311 312 310 310 309 309 308 309 307 306 306 306 306 306 306 307 304 304 302 300 301 299
306 305 304 304 306 307 307 309 312 313 311 312 311 311 312 311 312 312 313 311 309 309 309 311 313 309 310 308 308 307 307 307 308 304 303 301 304 302 304 305 305 304 304 301 300
305 304 303 303 306 307 309 311 312 313 302 305 309 312 313 314 312 312 311 310 308 308 308 311 309 308 307 308 307 310 305 306 306 305 306 304 310 305 305 304 302 304 304 303 300
307 306 304 304 307 308 310 313 312 313 304 306 310 311 313 310 309 309 309 309 309 309 310 313 307 307 308 308 305 308 304 305 304 304 302 303 302 302 300 303 305 303 304 304 302
312 309 305 305 306 307 309 312 313 305 307 306 311 310 310 310 309 309 308 309 308 309 307 308 307 305 307 305 304 304 305 301 298 299 304 305 304 304 301 302 303 302 303 304 302
313 312 308 307 308 308 309 311 308 306 306 307 311 309 309 309 308 308 306 306 309 312 311 310 306 305 306 307 306 304 306 310 308 304 310 300 300 307 304 301 302 301 301 302 301
314 312 310 312 308 310 311 308 311 306 305 308 310 309 311 308 308 307 307 308 306 309 308 312 313 305 303 307 307 303 306 310 307 307 309 298 306 307 301 301 299 298 299 300 299
314 312 311 311 308 312 308 308 307 309 305 309 310 311 310 309 310 307 306 307 308 308 314 311 311 303 304 303 305 305 305 305 305 289 299 308 304 303 302 299 296 295 297 300 299
313 311 311 311 310 314 301 309 308 308 306 309 308 308 309 309 308 308 307 306 310 307 311 312 314 304 301 302 299 302 301 305 304 307 301 306 306 309 309 304 302 295 295 301 299
314 312 311 311 311 311 312 307 306 311 310 309 307 307 308 309 308 307 309 308 307 306 308 307 311 307 302 302 303 299 302 301 302 303 307 304 310 305 307 305 304 297 302 303 302
314 312 310 311 312 311 311 307 309 307 310 310 309 307 307 309 310 307 308 310 309 305 308 306 308 311 308 299 297 302 302 303 307 307 301 303 311 303 304 303 300 298 303 304 302
314 312 310 311 312 312 307 307 309 308 307 309 310 309 308 309 311 308 308 307 307 306 307 305 308 313 310 304 300 299 301 301 302 301 304 307 311 299 299 298 296 297 301 301 301
314 311 307 308 311 309 310 309 309 309 308 308 308 308 309 309 309 310 308 307 307 307 309 308 308 309 311 309 304 302 300 301 305 307 309 309 309 309 308 308 308 303 299 302 301
314 310 308 308 309 310 308 308 308 308 308 309 308 308 308 310 309 310 309 308 303 305 306 307 311 310 309 309 302 303 303 303 302 305 307 309 308 309 308 308 308 309 308 302 298
316 311 309 309 309 309 310 311 309 308 308 309 309 308 309 310 309 309 309 308 310 300 302 301 310 309 310 308 305 307 308 308 302 303 303 305 307 308 309 309 308 307 306 302 300
315 314 311 308 308 309 309 309 310 310 309 308 309 309 309 308 309 309 309 308 308 307 301 300 304 301 311 305 304 307 308 309 309 308 306 306 306 307 307 307 306 306 303 302 301
Wind_Speed
6 8 9 11 12 14 15 16 17 18 17 15 8 3 6 8 7 4 7 8 10 11 10 9 8 4 2 3 4 2 4 2 6 7 5 8 4 7 5 7 14 13 9 10 25
7 8 8 9 10 12 13 14 15 16 17 13 11 4 2 1 3 5 4 6 8 10 11 11 13 4 3 3 3 4 3 6 5 4 3 5 6 11 7 8 9 11 15 14 25
8 9 10 10 10 11 13 13 14 15 16 15 11 6 4 5 4 2 2 4 6 8 10 10 12 5 4 3 5 1 3 2 3 5 4 3 3 10 9 5 17 25 25 24 27
11 11 11 12 12 11 11 13 13 15 15 14 13 7 5 4 3 5 3 1 5 7 9 9 9 5 3 2 3 2 0 2 3 5 3 3 4 6 19 14 10 18 23 28 28
13 13 14 13 14 13 12 13 14 14 15 15 13 8 6 6 6 7 6 3 4 6 7 9 9 4 1 1 4 2 1 3 5 8 11 7 8 10 17 26 20 14 24 28 27
15 15 16 16 16 15 14 12 15 16 15 16 13 9 7 6 6 8 8 8 6 6 6 6 4 6 2 0 1 1 6 9 9 13 11 5 4 2 7 16 18 19 27 28 26
16 17 17 18 18 17 16 14 14 16 16 16 14 9 11 12 8 10 10 8 7 6 5 4 3 4 3 1 3 3 5 6 3 4 4 4 6 10 18 12 17 24 26 27 26
17 18 19 19 20 19 17 15 15 16 17 15 12 8 7 8 9 12 11 9 8 7 6 4 3 2 1 2 5 4 4 5 1 4 1 4 10 7 14 17 24 27 28 30 29
18 19 20 21 21 21 19 17 16 17 15 13 8 6 8 7 11 14 13 10 8 7 5 3 2 3 2 3 4 6 4 3 8 6 3 5 11 7 8 21 27 32 34 35 33
21 22 21 21 21 23 21 19 16 13 11 8 9 4 10 6 8 13 15 13 9 6 3 2 2 3 3 3 4 5 4 5 7 2 4 5 17 14 19 24 34 37 38 39 38
25 24 23 22 21 21 22 17 6 5 8 7 3 7 10 13 10 10 12 11 9 5 5 1 2 6 8 7 4 4 4 8 6 5 4 10 14 21 17 23 26 30 35 42 44
27 26 25 22 20 19 17 7 6 6 12 15 23 27 27 16 8 13 13 7 6 7 5 3 8 6 4 4 5 4 3 8 8 1 6 11 17 16 16 17 27 29 37 45 43
28 27 26 22 19 18 13 8 6 6 4 11 15 15 12 15 9 9 14 9 5 6 7 7 3 6 6 5 5 4 5 5 8 6 5 8 9 6 6 14 25 27 33 36 44
27 26 24 20 16 12 9 5 4 4 3 7 4 5 6 7 5 9 17 7 3 10 8 7 3 7 4 6 8 5 5 3 4 5 4 5 10 4 7 11 6 20 27 35 38
24 23 23 18 9 8 5 2 2 1 4 5 4 5 7 5 3 4 13 7 5 6 6 8 8 6 6 7 8 7 3 3 1 3 3 4 5 7 3 8 18 9 27 32 37
21 21 16 15 15 14 11 4 3 4 7 5 5 5 4 4 3 5 5 4 2 4 3 6 1 6 6 2 3 4 2 4 4 1 2 6 7 4 6 8 7 6 12 18 27
19 19 14 15 9 10 11 9 2 5 3 5 6 4 3 6 5 7 7 7 8 4 7 1 5 2 3 4 2 3 5 3 5 2 8 4 3 12 9 11 10 10 12 16 20
19 18 16 14 12 8 16 3 9 8 8 3 2 2 6 7 4 5 5 5 7 2 3 5 9 9 6 7 7 6 8 6 8 4 9 2 9 7 11 14 13 14 15 16 20
21 20 20 16 13 14 12 6 9 9 8 9 3 3 4 4 4 5 8 6 8 13 11 7 8 2 1 2 4 5 6 3 5 2 3 5 8 7 10 9 9 15 14 21 23
22 18 26 17 16 16 2 21 8 9 8 5 14 11 10 8 8 8 9 5 6 15 1 4 5 2 3 3 2 4 3 4 2 3 6 10 14 13 13 9 10 8 16 19 21
22 8 10 20 23 15 9 10 7 15 16 9 10 8 9 9 9 7 8 4 7 5 5 5 5 3 3 9 11 3 3 1 2 5 6 4 13 5 8 10 10 11 19 20 21
29 5 17 34 13 9 15 7 9 9 22 10 7 12 12 11 10 9 12 13 20 13 11 8 5 9 15 1 2 2 8 12 7 7 3 3 22 1 6 9 8 12 20 21 21
16 19 21 45 10 15 4 5 9 5 9 16 12 8 7 10 5 10 11 7 24 12 12 10 4 8 7 2 2 7 8 7 1 2 12 6 20 5 6 9 13 16 16 19 22
15 5 9 30 20 13 15 10 8 7 17 8 4 9 3 7 10 9 5 7 22 15 18 23 8 11 19 12 6 6 11 15 22 12 17 30 29 42 21 25 28 26 32 29 29
17 7 11 7 19 18 9 6 18 10 10 13 11 19 9 12 17 19 8 2 2 4 1 10 15 18 22 28 6 8 13 16 20 29 18 34 27 39 27 30 29 32 30 26 29
18 9 13 7 20 23 23 22 29 17 7 9 20 10 21 22 29 26 21 5 10 5 6 2 13 12 24 20 8 9 31 18 24 26 24 29 37 31 31 42 36 41 28 26 29
41 21 28 15 13 12 22 33 34 26 25 33 20 17 19 27 34 37 20 9 14 15 11 8 5 3 25 4 7 8 30 30 34 26 26 26 41 32 30 26 27 30 29 32 32
Wind_Direction
1 4 9 11 12 14 15 11 11 14 19 21 9 21 49 63 62 61 70 69 52 42 35 26 5 13 103 61 49 79 61 177 197 158 237 170 146 176 190 165 185 204 217 225 189
341 347 352 358 1 1 4 6 5 7 8 13 7 329 308 53 65 71 86 56 44 34 19 8 10 42 89 54 44 73 103 219 190 201 230 180 186 181 173 191 216 220 220 199 185
322 328 333 339 347 350 349 352 354 355 359 2 5 338 298 289 274 166 121 53 36 22 12 8 9 28 75 41 24 82 171 219 249 229 231 209 193 184 173 220 214 216 204 191 187
311 315 318 322 328 335 338 337 341 339 344 347 352 344 300 294 255 195 188 57 15 8 8 11 10 23 54 42 20 29 93 256 287 223 218 250 178 228 214 232 235 236 215 198 194
305 308 310 314 317 321 327 328 326 326 329 332 337 330 283 267 252 220 222 251 324 343 356 14 21 29 37 337 2 97 302 298 276 258 246 248 232 240 249 245 251 239 205 203 200
297 302 306 309 311 314 319 323 319 317 318 321 320 311 265 246 251 232 238 249 273 312 339 8 22 359 103 9 124 278 278 269 263 254 243 218 246 264 274 243 237 218 206 205 205
286 292 298 302 305 308 312 315 314 311 313 314 311 294 267 268 253 236 239 245 252 285 307 334 2 359 337 16 338 304 325 316 217 220 247 210 280 239 265 235 211 207 207 206 207
281 287 291 295 298 302 305 309 310 307 307 303 300 284 265 255 244 231 238 237 249 275 279 304 336 52 51 327 5 24 49 3 218 162 328 136 271 264 273 222 210 211 211 212 215
277 280 285 292 296 298 302 305 307 303 296 294 277 258 266 265 236 230 233 239 245 264 250 276 320 81 72 74 10 8 283 294 313 204 131 171 272 253 261 218 223 223 221 219 219
276 279 282 287 294 299 303 307 307 291 283 271 248 241 247 239 230 229 231 239 250 246 232 195 98 68 49 84 243 243 284 263 248 230 195 224 263 268 254 225 230 234 229 224 221
276 278 281 286 291 298 306 325 305 284 250 232 234 251 283 259 246 239 232 230 230 210 189 64 91 214 226 202 177 165 199 241 252 242 246 250 251 273 265 233 234 231 229 230 229
276 279 282 285 290 297 304 320 301 292 303 263 256 256 258 252 252 236 220 202 184 204 121 41 236 202 126 144 170 165 225 263 279 301 192 267 259 263 257 249 238 230 228 233 227
272 277 281 287 290 294 291 288 277 294 266 284 252 252 246 233 230 231 202 193 175 180 189 177 205 119 151 171 173 212 196 237 240 327 255 298 267 242 276 258 255 247 249 244 234
269 270 273 281 289 282 278 255 259 322 43 270 242 237 209 181 243 203 188 185 195 209 164 231 194 173 171 214 155 244 211 234 286 3 258 26 291 251 247 276 246 251 244 244 237
280 272 270 264 245 250 243 205 256 41 303 268 201 190 181 184 146 199 189 196 193 183 134 240 171 177 191 215 166 225 140 168 146 221 346 237 275 262 18 263 266 253 254 249 245
291 288 271 264 252 243 229 204 144 49 246 289 180 185 148 199 198 148 166 175 122 137 254 248 262 174 206 89 159 126 97 61 59 72 289 222 192 215 185 209 253 249 263 256 248
286 289 264 252 246 229 209 157 45 192 295 233 216 188 194 188 213 180 168 176 176 152 222 273 211 178 162 116 62 106 76 316 324 347 239 165 217 254 229 221 221 251 284 281 258
287 277 273 248 223 191 173 72 215 202 207 41 95 80 196 158 242 181 158 216 239 95 112 185 273 178 177 196 181 176 170 168 233 233 280 344 245 264 226 254 255 256 271 269 247
269 269 258 242 212 188 187 214 210 180 194 167 109 178 238 227 206 156 211 216 209 173 190 177 262 107 168 141 142 183 189 168 100 113 340 240 273 281 261 275 262 261 259 254 243
254 265 255 235 208 190 169 236 212 196 147 153 198 183 207 201 175 186 179 198 222 196 127 221 303 170 158 134 45 177 170 78 11 257 264 267 276 253 242 237 241 238 239 251 242
231 234 224 202 182 188 220 227 213 212 185 174 206 222 209 188 196 206 220 228 207 165 160 145 157 224 124 212 168 132 213 129 163 163 204 275 268 203 221 189 221 224 233 243 236
203 207 186 175 179 205 233 197 214 218 209 240 198 212 197 185 202 219 212 215 184 151 163 202 159 233 233 211 332 221 199 176 202 228 252 141 271 189 201 208 220 232 246 241 239
206 210 184 179 203 216 238 270 237 204 194 224 229 202 195 196 229 192 220 201 170 157 167 177 218 248 260 90 13 221 199 222 236 143 207 180 253 108 204 242 236 239 240 249 257
201 175 179 207 217 209 221 248 243 246 244 254 258 194 127 237 235 256 227 206 196 195 209 165 179 198 233 231 133 185 217 218 220 227 233 232 256 268 265 277 273 265 266 267 256
207 198 192 195 219 221 193 202 231 231 216 212 249 230 205 237 247 242 241 235 216 238 207 174 229 227 245 255 181 211 236 217 216 228 219 250 244 254 264 265 274 281 278 259 246
220 182 188 233 215 211 214 229 243 238 184 221 228 231 229 237 234 247 233 176 217 6 189 218 247 246 254 255 197 249 255 240 231 237 243 252 259 260 268 277 281 278 275 255 246
232 242 209 200 209 209 213 222 229 232 246 245 237 239 243 239 246 257 271 246 243 227 195 175 195 205 251 196 118 270 247 240 255 240 232 244 252 273 271 267 264 269 254 253 251